TimeEDT,TemperatureF,Dew PointF,Humidity,Sea Level PressureIn,VisibilityMPH,Wind Direction,Wind SpeedMPH,Gust SpeedMPH,PrecipitationIn,Events,Conditions,WindDirDegrees,DateUTC
12:30 AM,37.4,35.6,93,30.14,10.0,SSE,8.1,-,0.00,,Clear,150,2012-10-09 04:30:00
12:50 AM,37.4,35.6,93,30.14,10.0,SSE,8.1,-,0.00,,Clear,150,2012-10-09 04:50:00
1:10 AM,37.4,37.4,100,30.14,10.0,SSE,6.9,-,0.00,,Clear,150,2012-10-09 05:10:00
1:30 AM,37.4,37.4,100,30.14,10.0,SSE,6.9,-,0.00,,Clear,150,2012-10-09 05:30:00
1:50 AM,37.4,35.6,93,30.13,10.0,SSE,6.9,-,0.00,,Clear,150,2012-10-09 05:50:00
2:10 AM,37.4,37.4,100,30.14,10.0,South,6.9,-,0.00,,Clear,170,2012-10-09 06:10:00
2:50 AM,37.4,37.4,100,30.14,10.0,SSE,5.8,-,0.00,,Clear,160,2012-10-09 06:50:00
3:10 AM,35.6,35.6,100,30.13,10.0,SSE,5.8,-,0.00,,Clear,150,2012-10-09 07:10:00
3:50 AM,35.6,35.6,100,30.12,8.0,SSE,5.8,-,0.00,,Clear,160,2012-10-09 07:50:00
4:10 AM,35.6,35.6,100,30.12,8.0,SSE,5.8,-,0.00,,Clear,150,2012-10-09 08:10:00
4:30 AM,35.6,35.6,100,30.11,7.0,SSE,6.9,-,0.00,,Clear,150,2012-10-09 08:30:00
4:50 AM,35.6,35.6,100,30.11,7.0,SSE,6.9,-,0.00,,Clear,150,2012-10-09 08:50:00
5:10 AM,33.8,33.8,100,30.12,7.0,SSE,6.9,-,0.00,,Clear,150,2012-10-09 09:10:00
5:30 AM,33.8,33.8,100,30.11,7.0,SE,6.9,-,0.00,,Clear,140,2012-10-09 09:30:00
5:50 AM,35.6,35.6,100,30.12,7.0,SSE,6.9,-,0.00,,Clear,150,2012-10-09 09:50:00
6:10 AM,35.6,35.6,100,30.12,8.0,SSE,6.9,-,0.00,,Clear,160,2012-10-09 10:10:00
6:30 AM,35.6,35.6,100,30.12,10.0,SSE,8.1,-,0.00,,Clear,160,2012-10-09 10:30:00
6:50 AM,35.6,35.6,100,30.13,9.0,SSE,6.9,-,0.00,,Clear,160,2012-10-09 10:50:00
7:10 AM,35.6,35.6,100,30.13,7.0,SSE,6.9,-,0.00,,Clear,160,2012-10-09 11:10:00
7:30 AM,35.6,35.6,100,30.13,7.0,SSE,6.9,-,0.00,,Clear,150,2012-10-09 11:30:00
7:50 AM,35.6,35.6,100,30.13,5.0,SSE,6.9,-,0.00,,Clear,160,2012-10-09 11:50:00
8:10 AM,35.6,35.6,100,30.13,5.0,SSE,6.9,-,0.00,,Clear,150,2012-10-09 12:10:00
8:30 AM,37.4,37.4,100,30.13,7.0,SSE,8.1,-,0.00,,Clear,160,2012-10-09 12:30:00
8:50 AM,39.2,39.2,100,30.12,9.0,SSE,8.1,-,0.00,,Clear,160,2012-10-09 12:50:00
9:10 AM,39.2,39.2,100,30.13,10.0,South,9.2,-,0.00,,Clear,170,2012-10-09 13:10:00
9:30 AM,42.8,39.2,87,30.13,10.0,SSE,9.2,-,0.00,,Clear,160,2012-10-09 13:30:00
9:50 AM,42.8,39.2,87,30.13,10.0,South,9.2,-,0.00,,Clear,170,2012-10-09 13:50:00
10:10 AM,44.6,41.0,87,30.13,10.0,South,10.4,-,0.00,,Clear,170,2012-10-09 14:10:00
10:30 AM,46.4,41.0,81,30.12,10.0,South,9.2,-,0.00,,Clear,180,2012-10-09 14:30:00
10:50 AM,48.2,41.0,76,30.12,10.0,SSE,8.1,-,0.00,,Clear,160,2012-10-09 14:50:00
11:10 AM,50.0,41.0,71,30.11,10.0,South,10.4,-,0.00,,Clear,190,2012-10-09 15:10:00
11:30 AM,51.8,39.2,62,30.11,10.0,South,9.2,-,0.00,,Clear,170,2012-10-09 15:30:00
11:50 AM,53.6,39.2,58,30.11,10.0,South,12.7,18.4,0.00,,Clear,190,2012-10-09 15:50:00
12:10 PM,53.6,37.4,54,30.10,10.0,South,11.5,17.3,0.00,,Clear,180,2012-10-09 16:10:00
12:30 PM,53.6,35.6,51,30.09,10.0,SSW,9.2,-,0.00,,Clear,200,2012-10-09 16:30:00
12:50 PM,55.4,35.6,47,30.08,10.0,South,12.7,23.0,0.00,,Clear,190,2012-10-09 16:50:00
1:10 PM,55.4,37.4,51,30.07,10.0,SSW,10.4,19.6,0.00,,Clear,200,2012-10-09 17:10:00
1:30 PM,55.4,35.6,47,30.06,10.0,SSW,10.4,19.6,0.00,,Clear,210,2012-10-09 17:30:00
1:50 PM,57.2,35.6,44,30.05,10.0,SSW,12.7,19.6,0.00,,Clear,200,2012-10-09 17:50:00
2:10 PM,57.2,35.6,44,30.04,10.0,SSW,12.7,17.3,0.00,,Clear,200,2012-10-09 18:10:00
2:30 PM,57.2,33.8,41,30.03,10.0,SSW,13.8,18.4,0.00,,Clear,200,2012-10-09 18:30:00
2:50 PM,57.2,32.0,38,30.01,10.0,South,12.7,18.4,0.00,,Clear,190,2012-10-09 18:50:00
3:10 PM,57.2,33.8,41,30.01,10.0,SSW,10.4,-,0.00,,Clear,200,2012-10-09 19:10:00
3:30 PM,59.0,33.8,39,30.01,10.0,South,11.5,18.4,0.00,,Clear,180,2012-10-09 19:30:00
3:50 PM,59.0,35.6,42,30.00,10.0,South,10.4,17.3,0.00,,Clear,180,2012-10-09 19:50:00
4:10 PM,59.0,33.8,39,29.99,10.0,SSW,13.8,18.4,0.00,,Clear,200,2012-10-09 20:10:00
4:30 PM,59.0,35.6,42,29.98,10.0,SSW,13.8,18.4,0.00,,Clear,200,2012-10-09 20:30:00
4:50 PM,59.0,33.8,39,29.98,10.0,South,12.7,16.1,0.00,,Clear,170,2012-10-09 20:50:00
5:10 PM,59.0,35.6,42,29.98,10.0,SSW,16.1,19.6,0.00,,Clear,200,2012-10-09 21:10:00
5:30 PM,57.2,35.6,44,29.97,10.0,South,13.8,17.3,0.00,,Clear,170,2012-10-09 21:30:00
5:50 PM,57.2,33.8,41,29.96,10.0,SSW,13.8,17.3,0.00,,Clear,200,2012-10-09 21:50:00
6:10 PM,57.2,35.6,44,29.96,10.0,South,10.4,-,0.00,,Clear,180,2012-10-09 22:10:00
6:30 PM,55.4,35.6,47,29.96,10.0,South,8.1,-,0.00,,Clear,190,2012-10-09 22:30:00
6:50 PM,55.4,35.6,47,29.96,10.0,South,9.2,-,0.00,,Clear,180,2012-10-09 22:50:00
7:10 PM,53.6,35.6,51,29.95,10.0,South,8.1,-,0.00,,Clear,180,2012-10-09 23:10:00
7:30 PM,51.8,35.6,54,29.95,10.0,South,8.1,-,0.00,,Clear,180,2012-10-09 23:30:00
7:50 PM,50.0,35.6,58,29.95,10.0,South,8.1,-,0.00,,Clear,180,2012-10-09 23:50:00
8:10 PM,50.0,35.6,58,29.96,10.0,South,6.9,-,0.00,,Clear,180,2012-10-10 00:10:00
8:30 PM,48.2,35.6,62,29.96,10.0,SSE,8.1,-,0.00,,Clear,160,2012-10-10 00:30:00
8:50 PM,48.2,35.6,62,29.96,10.0,SSE,6.9,-,0.00,,Clear,160,2012-10-10 00:50:00
9:10 PM,48.2,35.6,62,29.96,10.0,SSE,6.9,-,0.00,,Clear,160,2012-10-10 01:10:00
9:30 PM,44.6,35.6,71,29.96,10.0,SSE,6.9,-,0.00,,Clear,150,2012-10-10 01:30:00
9:50 PM,44.6,37.4,76,29.95,10.0,SSE,6.9,-,0.00,,Clear,160,2012-10-10 01:50:00
10:10 PM,46.4,37.4,71,29.95,10.0,South,9.2,-,0.00,,Clear,170,2012-10-10 02:10:00
10:30 PM,46.4,37.4,71,29.95,10.0,SSE,8.1,-,0.00,,Clear,150,2012-10-10 02:30:00
10:50 PM,44.6,37.4,76,29.94,10.0,SE,9.2,-,0.00,,Clear,140,2012-10-10 02:50:00
11:10 PM,44.6,37.4,76,29.93,10.0,SSE,10.4,-,0.00,,Clear,150,2012-10-10 03:10:00
11:30 PM,44.6,37.4,76,29.93,10.0,SSE,10.4,-,0.00,,Clear,150,2012-10-10 03:30:00
11:50 PM,44.6,37.4,76,29.92,10.0,SSE,9.2,-,0.00,,Clear,160,2012-10-10 03:50:00